Location: *
(45.4590°N, 16.3650°E)
Time: 02:25:25
(UTC+00:00)

STARLINK-1104 - Pass Details

Date: 17 January 2020
Orbit: 549 x 550 km, 53.0° (Epoch: 22 February)

Event Time Altitude Azimuth Distance (km) Brightness Sun altitude
Rises 16:09:09 0° 222° (SW) 2,709 8.6 -5.5°
Reaches altitude 10° 16:11:24 10° 217° (SW) 1,819 7.4 -5.8°
Maximum altitude 16:15:26 53° 141° (SE) 684 4.0 -6.5°
Drops below altitude 10° 16:19:29 10° 65° (ENE) 1,831 5.6 -7.1°
Enters shadow 16:19:41 - 64° (ENE) 1,910 5.7 -7.2°
